Regional Weather Roundup
Issued by NWS

Home | Current Version | Previous Version | Graphics & Text | Print | Product List | Glossary On
Versions: 1 2 3 4 5 6 7 8 9 10 11 12 13 14 15 16 17 18 19 20 21 22 23 24 25 26 27 28 29 30 31 32 33 34 35 36 37 38 39 40 41 42 43 44 45 46 47 48 49 50
903
ASUS43 KMPX 151001
RWRMN
WEATHER ROUNDUP FOR MINNESOTA
NATIONAL WEATHER SERVICE TWIN CITIES/CHANHASSEN MN
400 AM CST FRI DEC 15 2017


NOTE: "FAIR" INDICATES FEW OR NO CLOUDS BELOW 12,000 FEET WITH NO
SIGNIFICANT WEATHER AND/OR OBSTRUCTIONS TO VISIBILITY. N/A MEANS
CURRENT SKY AND/OR WEATHER CONDITIONS ARE NOT AVAILABLE.

MNZ060>063-068>070-151100-
   Twin Cities Metro

CITY           SKY/WX    TMP DP  RH WIND       PRES   REMARKS
TWIN CITIES    CLOUDY    24  20  84 W5        29.93F WCI  18
ST PAUL        CLOUDY    23  19  85 NW9       29.94F WCI  13
CRYSTAL        CLOUDY    23  16  74 NW6       29.92F WCI  16
BLAINE         CLOUDY    23  19  86 W7        29.92S WCI  15
LAKEVILLE      CLOUDY    21  19  93 W3        29.93F
EDEN PRAIRIE   CLOUDY    24  19  81 W3        29.92F
SOUTH ST PAUL  CLOUDY    24  19  83 W3        29.93F
LAKE ELMO      FLURRIES  23  19  86 W7        29.93F WCI  15
$$
MNZ001>005-007-008-013>017-022>024-027-028-151100-
   Northwest Minnesota

CITY           SKY/WX    TMP DP  RH WIND       PRES   REMARKS
BEMIDJI        FLURRIES  10   5  82 NW9       29.89S WCI  -4
HALLOCK        CLOUDY    10   9  92 CALM      29.93F
ROSEAU         CLOUDY    10   5  79 N3        29.92S
WARROAD        FLURRIES   9   3  78 CALM      29.91F
CROOKSTON      CLOUDY    16  12  86 CALM      29.95F
FOSSTON        CLOUDY     9   7  92 CALM      29.92S
DETROIT LAKES  CLOUDY    19  18  93 N5        29.90F FOG     WCI  13
MOORHEAD       CLOUDY    19  16  86 CALM      29.95F
PARK RAPIDS    CLOUDY    16  11  80 W6        29.87F WCI   7
MAHNOMEN       CLOUDY    12   9  89 N3        29.91F
$$
MNZ006-009>011-018-025>026-151100-
   North Central Minnesota

CITY           SKY/WX    TMP DP  RH WIND       PRES   REMARKS
BAUDETTE       CLOUDY     9   4  80 N9        29.89S WCI  -4
FLAG ISLAND    CLOUDY     9   3  78 NW8       29.89F WCI  -4
INTL FALLS     LGT SNOW   9   3  77 NW8       29.88S WCI  -3
WASKISH        CLOUDY    10   7  85 NW7       29.90S WCI   0
BIG FORK       LGT SNOW   9   3  78 NW5       29.88S WCI   0
LONGVILLE      FLURRIES  12   9  85 NW3       29.88F
GRAND RAPIDS   FLURRIES  11   5  77 NW8       29.88F WCI  -1
CRANE LAKE     LGT SNOW   9   5  85 NW3       29.88S
ORR            CLOUDY     9   3  78 NW10      29.83S WCI  -6
COOK           FLURRIES   9   5  85 W13       29.85F WCI  -7
WALKER         FLURRIES  13   9  81 NW8       29.88F WCI   2
$$
MNZ012-019>021-037-151100-
   Northeast Minnesota

CITY           SKY/WX    TMP DP  RH WIND       PRES   REMARKS
DULUTH         LGT SNOW  11   8  88 NW12      29.83S FOG     WCI  -3
ELY            LGT SNOW   9   3  78 NW8       29.82S WCI  -4
HIBBING        FLURRIES  10   5  80 NW14      29.85F WCI  -6
EVELETH        FLURRIES  12   5  72 NW9       29.85S WCI   0
DULUTH HARBOR  CLOUDY    18  10  73 W8        29.91S WCI   7
TWO HARBORS    MOCLDY    16   9  73 NW8       29.81F WCI   5
SILVER BAY     CLEAR     10   7  85 NW5       29.80F WCI   2
GRAND MARAIS     N/A     14   5  67 N14G25    29.80F WCI  -1
G MARAIS ARPRT CLOUDY     7   0  72 NW6       29.73S WCI  -3
$$
MNZ029>031-032-039>041-046>048-054>057-064-151100-
   West Central Minnesota

CITY           SKY/WX    TMP DP  RH WIND       PRES   REMARKS
FERGUS FALLS   CLOUDY    21  18  86 NE5       29.95F WCI  15
WHEATON        CLOUDY    27  23  86 N8        29.95S WCI  18
MORRIS         MIX PCPN  28  27  93 N6        29.90F WCI  22
ALEXANDRIA     CLOUDY    22  20  92 N5        29.90F WCI  16
ELBOW LAKE     CLOUDY    23  21  93 CALM      29.92S
WADENA         CLOUDY    18  14  86 NW6       29.89F WCI   9
GLENWOOD       CLOUDY    23  21  93 N3        29.90F
APPLETON         N/A     30  28  93 W3        29.92S
BENSON         DRIZZLE   28  28 100 CALM      29.92F
ORTONVILLE     CLOUDY    30  27  86 NW8       29.91F WCI  23
MADISON        CLOUDY    34  28  80 W8        29.92F WCI  27
WILLMAR        CLOUDY    28  27  93 CALM      29.92S
$$
MNZ033>034-036-042>043-049>051-058-059-151100-
   Central Minnesota

CITY           SKY/WX    TMP DP  RH WIND       PRES   REMARKS
ST CLOUD       CLOUDY    21  18  88 CALM      29.91F
SAUK CENTRE    CLOUDY    22  20  92 CALM      29.90F
PAYNESVILLE    CLOUDY    23  22  96 CALM      29.91F
AITKIN         FLURRIES  14   9  79 W3        29.88F
PINE RIVER     CLOUDY    14  10  85 NW6       29.92F WCI   5
BRAINERD       CLOUDY    17  11  77 NW7       29.90F WCI   8
STAPLES        CLOUDY    16  12  86 NW5       29.90S WCI   9
LONG PRAIRIE   CLOUDY    21  19  93 W5        29.91S WCI  15
LITTLE FALLS   CLOUDY    19  12  73 NW5       29.91F WCI  13
LITCHFIELD     CLOUDY    25  23  93 CALM      29.91F
BUFFALO        CLOUDY    24  20  85 CALM      29.93F
MAPLE LAKE     CLOUDY    24  22  90 CALM      29.93S
HUTCHINSON     CLOUDY    26  24  92 CALM      29.92F
$$
MNZ037-044-045-052-053-151100-
   East Central Minnesota

CITY           SKY/WX    TMP DP  RH WIND       PRES   REMARKS
PRINCETON      CLOUDY    21  16  79 W6        29.92S WCI  14
MORA           CLOUDY    18  10  73 NW9       29.93S WCI   6
CAMBRIDGE      FLURRIES  21  12  68 NW7       29.92F WCI  13
RUSH CITY      CLOUDY    17  11  78 NW6       29.92F WCI   8
MOOSE LAKE     FLURRIES  16   9  73 NW6       29.87F WCI   7
HINCKLEY       FLURRIES  18  12  79 CALM      29.91S
CLOQUET        FLURRIES  14   9  79 NW9       29.85F WCI   2
MCGREGOR       CLOUDY    16  10  79 NW7       29.89F WCI   6
$$
MNZ071>073-080-081-089-090-097-098-151100-
   Southwest Minnesota

CITY           SKY/WX    TMP DP  RH WIND       PRES   REMARKS
MONTEVIDEO     CLOUDY    28  27  93 CALM      29.91F
GRANITE FALLS  CLOUDY    31  28  89 SW9       29.93F WCI  23
CANBY          CLOUDY    33  28  85 W12       29.93F WCI  24
MARSHALL       CLOUDY    31  27  85 W14       29.92F WCI  21
REDWOOD FALLS  CLOUDY    30  27  88 W8        29.91F WCI  22
OLIVIA         CLOUDY    30  28  93 W7        29.90F WCI  23
PIPESTONE      CLOUDY    28  27  93 W10       29.92F WCI  19
WINDOM         FLURRIES  28  16  59 SW8       29.93F WCI  20
WORTHINGTON    FLURRIES  27  25  92 W15       29.94F WCI  15
JACKSON        CLOUDY    28  25  86 MISG      29.94F
SLAYTON        CLOUDY    28  26  91 W13       29.94F WCI  18
$$
MNZ065>067-074>077-082>085-091>093-151100-
   South Central Minnesota

CITY           SKY/WX    TMP DP  RH WIND       PRES   REMARKS
MANKATO        CLOUDY    25  22  88 SW7       29.93F WCI  17
NEW ULM        FLURRIES  28  25  86 W9        29.92F WCI  20
ST JAMES       FLURRIES  28  25  86 SW10      29.94F WCI  19
FAIRMONT       FLURRIES  28  23  81 W14       29.95F WCI  17
GLENCOE        CLOUDY    25  23  93 CALM      29.92F
FARIBAULT      CLOUDY    25  19  80 CALM      29.93F
OWATONNA       CLOUDY    25  21  86 SW5       29.92F WCI  19
WASECA         CLOUDY    23  21  93 SW5       29.95F WCI  17
$$
MNZ078>079-086>088-094>096-151100-
   Southeast Minnesota

CITY           SKY/WX    TMP DP  RH WIND       PRES   REMARKS
ROCHESTER      CLOUDY    22  18  85 W12       29.91F WCI  10
RED WING       FLURRIES  23  14  68 W5        29.92F WCI  17
STANTON        CLOUDY    25  20  82 W5        29.92F WCI  19
DODGE CENTER   CLOUDY    21  18  86 W9        29.92F WCI  11
WINONA           N/A     25  16  68 NW8       29.94S WCI  16
PRESTON        CLOUDY    22  17  81 NW14      29.92F WCI   9
$$
ABBREVIATIONS USED IN REMARKS
   TC - TEMPERATURES IN CELSIUS
  WCI - WIND CHILL INDEX
   HX - HEAT INDEX
  VSB - VISIBILITY
$$




USA.gov is the U.S. government's official web portal to all federal, state and local government web resources and services.